Estación Meteorológica Peña el Pijo (Robertgarden) [ 09/30/20 20:44:06 CEST ]

Fecha Hora Presion(HPa) Temp (°C) Humedad % Rocio (°C) Viento ( m/s) Direccion Lluvia 1Hora(mm) Lluvia 24H(mm) LLuvia Total(mm)
2020-Feb-28 01:08:38 1013.400 - - - - N     39.88
2020-Feb-28 02:09:12 1013.300 - - - - N     39.88
2020-Feb-28 03:09:43 1012.900 - - - - N     39.88
2020-Feb-28 04:09:33 1012.400 - - - - N     39.88
2020-Feb-28 05:09:57 1012.300 - - - - N     39.88
2020-Feb-28 06:09:58 1012.200 - - - - N     39.88
2020-Feb-28 07:08:54 1012.300 - - - - N     39.88
2020-Feb-28 08:09:07 1012.500 - - - - N     39.88
2020-Feb-28 09:08:55 1012.900 - - - - N     39.88
2020-Feb-28 10:08:54 1012.500 - - - - N     39.88
2020-Feb-28 11:08:50 1011.800 - - - - N     39.88
2020-Feb-28 12:08:39 1011.200 - - - - N     39.88
2020-Feb-28 13:09:20 1010.500 - - - - N     39.88
2020-Feb-28 14:09:27 1009.300 - - - - N     39.88
2020-Feb-28 15:09:15 1008.700 - - - - N     39.88
2020-Feb-28 16:09:39 1008.300 - - - - N     39.88
2020-Feb-28 17:09:14 1008.500 - - - - N     39.88
2020-Feb-28 18:08:44 1008.200 - - - - N     39.88
2020-Feb-28 19:09:34 1008.300 - - - - N     39.88
2020-Feb-28 20:08:58 1008.800 - - - - N     39.88
2020-Feb-28 21:08:51 1008.900 - - - - N     39.88
2020-Feb-28 22:09:07 1008.900 - - - - N     39.88
2020-Feb-28 23:08:48 1008.800 - - - - N     39.88

Temperatura Máxima:    Temperatura Mínima:
Presión Máxima:1013.400 Hpa    Presión Mínima:1008.200 Hpa


Volver